TimeEST,TemperatureF,Dew PointF,Humidity,Sea Level PressureIn,VisibilityMPH,Wind Direction,Wind SpeedMPH,Gust SpeedMPH,PrecipitationIn,Events,Conditions,WindDirDegrees,DateUTC
12:53 AM,43.0,25.0,49,30.33,10.0,Calm,Calm,-,N/A,,Clear,0,2013-11-11 05:53:00
1:53 AM,37.9,27.0,65,30.33,10.0,Calm,Calm,-,N/A,,Clear,0,2013-11-11 06:53:00
2:53 AM,36.0,28.0,73,30.32,10.0,Calm,Calm,-,N/A,,Clear,0,2013-11-11 07:53:00
3:53 AM,35.1,28.9,78,30.32,10.0,Calm,Calm,-,N/A,,Clear,0,2013-11-11 08:53:00
4:53 AM,35.1,28.9,78,30.32,10.0,ENE,3.5,-,N/A,,Clear,70,2013-11-11 09:53:00
5:53 AM,34.0,28.9,82,30.34,10.0,East,3.5,-,N/A,,Clear,90,2013-11-11 10:53:00
6:53 AM,33.1,28.9,85,30.34,10.0,Calm,Calm,-,N/A,,Clear,0,2013-11-11 11:53:00
7:53 AM,35.1,30.9,85,30.36,10.0,Calm,Calm,-,N/A,,Clear,0,2013-11-11 12:53:00
8:53 AM,41.0,33.1,73,30.37,10.0,Calm,Calm,-,N/A,,Clear,0,2013-11-11 13:53:00
9:53 AM,48.0,32.0,54,30.35,10.0,East,3.5,-,N/A,,Clear,100,2013-11-11 14:53:00
10:53 AM,52.0,27.0,38,30.34,10.0,Calm,Calm,-,N/A,,Clear,0,2013-11-11 15:53:00
11:53 AM,55.0,26.1,33,30.31,10.0,Calm,Calm,-,N/A,,Clear,0,2013-11-11 16:53:00
12:53 PM,60.1,25.0,26,30.26,10.0,Calm,Calm,-,N/A,,Clear,0,2013-11-11 17:53:00
1:53 PM,63.0,25.0,24,30.23,10.0,Variable,3.5,-,N/A,,Clear,0,2013-11-11 18:53:00
2:53 PM,64.0,25.0,23,30.21,10.0,Variable,3.5,-,N/A,,Clear,0,2013-11-11 19:53:00
3:53 PM,64.0,21.0,19,30.19,10.0,Variable,3.5,-,N/A,,Clear,0,2013-11-11 20:53:00
4:53 PM,62.1,24.1,23,30.19,10.0,SW,3.5,-,N/A,,Clear,230,2013-11-11 21:53:00
5:53 PM,57.0,28.9,34,30.19,10.0,Calm,Calm,-,N/A,,Clear,0,2013-11-11 22:53:00
6:53 PM,52.0,30.9,45,30.21,10.0,Calm,Calm,-,N/A,,Clear,0,2013-11-11 23:53:00
7:53 PM,48.9,32.0,52,30.21,10.0,Calm,Calm,-,N/A,,Overcast,0,2013-11-12 00:53:00
8:53 PM,51.1,33.1,50,30.19,10.0,Calm,Calm,-,N/A,,Overcast,0,2013-11-12 01:53:00
9:53 PM,51.1,30.9,46,30.19,10.0,Calm,Calm,-,N/A,,Overcast,0,2013-11-12 02:53:00
10:53 PM,51.1,30.9,46,30.20,10.0,Calm,Calm,-,N/A,,Mostly Cloudy,0,2013-11-12 03:53:00
11:53 PM,50.0,33.1,52,30.19,10.0,SW,3.5,-,N/A,,Scattered Clouds,230,2013-11-12 04:53:00